M0ZPG Weather Reports


time (UTC)temp
C
wind
direction
speed
KPH
gust
KPH
rain 1hr
cm
rain 24hr
cm
rain mn
cm
humidity
%
barometer
mb
20260505192915 13 82 0.0 6.4 0.00 0.00 0.00 62 1010.5
20260505192017 14 82 0.0 3.2 0.00 0.00 0.00 62 1010.3
20260505190905 14 82 1.6 4.8 0.00 0.00 0.00 61 1010.1
20260505190003 14 82 1.6 4.8 0.00 0.00 0.00 61 1010.0
20260505185403 14 82 0.0 3.2 0.00 0.00 0.00 61 1010.0
20260505184716 14 82 1.6 4.8 0.00 0.00 0.00 61 1010.0
20260505183604 14 82 1.6 4.8 0.00 0.00 0.00 60 1010.0
20260505182705 14 82 1.6 4.8 0.00 0.00 0.00 60 1009.9
20260505181805 14 82 3.2 6.4 0.00 0.00 0.00 60 1009.9
20260505180903 14 85 3.2 11.3 0.00 0.00 0.00 60 1010.1
20260505180003 15 94 3.2 9.7 0.00 0.00 0.00 59 1010.1
20260505175403 15 97 3.2 9.7 0.00 0.00 0.00 60 1010.1
20260505174503 15 94 3.2 11.3 0.00 0.00 0.00 59 1010.1
20260505173603 15 93 3.2 12.9 0.00 0.00 0.00 58 1010.2
20260505172703 15 90 1.6 6.4 0.00 0.00 0.00 58 1010.2
20260505171805 15 75 3.2 8.0 0.00 0.00 0.00 57 1010.2
20260505170903 15 78 3.2 8.0 0.00 0.00 0.00 57 1010.2
20260505170004 15 70 1.6 8.0 0.00 0.00 0.00 57 1010.2
20260505165403 15 73 1.6 4.8 0.00 0.00 0.00 57 1010.2
20260505164717 15 77 1.6 4.8 0.00 0.00 0.00 57 1010.3
20260505163814 16 76 3.2 8.0 0.00 0.00 0.00 56 1010.2
20260505162705 16 75 1.6 6.4 0.00 0.00 0.00 56 1010.2
20260505161805 16 77 1.6 6.4 0.00 0.00 0.00 56 1010.2
20260505160903 16 77 1.6 6.4 0.00 0.00 0.00 56 1010.2
20260505160219 16 74 3.2 9.7 0.00 0.00 0.00 55 1010.2
20260505152704 16 60 1.6 4.8 0.00 0.00 0.00 55 1010.4
20260505151803 16 26 1.6 6.4 0.00 0.00 0.00 56 1010.4
20260505151117 16 20 1.6 8.0 0.00 0.00 0.00 56 1010.5
20260505150214 16 69 1.6 9.7 0.00 0.00 0.00 56 1010.4
20260505124506 16 65 3.2 11.3 0.00 0.00 0.00 57 1011.1
20260505123604 16 42 3.2 14.5 0.00 0.00 0.00 58 1011.0
20260505122703 16 77 4.8 12.9 0.00 0.00 0.00 57 1011.0
20260505121806 16 51 3.2 14.5 0.00 0.00 0.00 57 1010.9
20260505120903 16 2 3.2 14.5 0.00 0.00 0.00 57 1010.9
20260505120216 16 33 3.2 12.9 0.00 0.00 0.00 57 1011.0
20260505115405 16 37 3.2 11.3 0.00 0.00 0.00 58 1011.0
20260505114503 16 26 3.2 12.9 0.00 0.00 0.00 59 1010.9
20260505113606 16 58 3.2 12.9 0.00 0.00 0.00 59 1011.0
20260505112705 16 49 4.8 12.9 0.00 0.00 0.00 59 1011.0
20260505111803 16 32 4.8 16.1 0.00 0.00 0.00 60 1011.0
20260505110903 16 26 3.2 14.5 0.00 0.00 0.00 60 1011.1
20260505101805 16 349 3.2 8.0 0.00 0.00 0.00 67 1011.6
20260505100905 15 81 3.2 12.9 0.00 0.00 0.00 66 1011.8
20260505100003 15 31 3.2 9.7 0.00 0.00 0.00 66 1011.8
20260505095403 15 27 3.2 9.7 0.00 0.00 0.00 66 1011.8
20260505094717 15 66 3.2 11.3 0.00 0.00 0.00 67 1012.0
20260505093603 15 2 1.6 12.9 0.00 0.00 0.00 69 1011.8
20260505092705 14 22 3.2 16.1 0.00 0.00 0.00 71 1011.9
20260505091803 14 30 3.2 11.3 0.00 0.00 0.00 72 1011.9
20260505091116 13 13 3.2 12.9 0.00 0.00 0.00 73 1011.9
20260505090003 13 4 3.2 12.9 0.00 0.00 0.00 73 1012.0
20260505085404 13 1 3.2 11.3 0.00 0.00 0.00 75 1012.0
20260505084717 13 11 3.2 11.3 0.00 0.00 0.00 76 1012.0
20260505083603 12 25 1.6 6.4 0.00 0.00 0.00 76 1012.1
20260505082703 12 23 1.6 11.3 0.00 0.00 0.00 76 1012.2
20260505081806 12 21 1.6 11.3 0.00 0.00 0.00 77 1012.2
20260505080905 12 346 0.0 4.8 0.00 0.00 0.00 78 1012.1
20260505080005 12 7 1.6 11.3 0.00 0.00 0.00 79 1012.0
20260505075615 12 6 3.2 11.3 0.00 0.00 0.00 78 1012.0
20260505074504 12 11 1.6 11.3 0.00 0.00 0.00 79 1012.0
20260505073603 12 354 1.6 8.0 0.00 0.00 0.00 78 1011.9
20260505072703 12 331 1.6 11.3 0.00 0.00 0.00 78 1011.9
20260505072015 12 340 1.6 8.0 0.00 0.00 0.00 79 1012.1
20260505070905 12 18 1.6 6.4 0.00 0.00 0.00 80 1012.2
20260505070005 12 24 1.6 8.0 0.00 0.00 0.00 81 1012.3
20260505065403 12 28 1.6 8.0 0.00 0.00 0.00 82 1012.2
20260505064505 11 31 0.0 6.4 0.00 0.00 0.00 83 1012.3
20260505063605 11 32 1.6 4.8 0.00 0.00 0.00 84 1012.2
20260505062705 11 31 1.6 4.8 0.00 0.00 0.00 85 1012.2
20260505061803 11 26 1.6 6.4 0.00 0.00 0.00 85 1012.3
20260505061118 11 22 0.0 6.4 0.00 0.00 0.00 86 1012.3
20260505060005 11 29 1.6 6.4 0.00 0.00 0.00 87 1012.2
20260505055403 11 56 1.6 8.0 0.00 0.00 0.00 87 1012.3
20260505054505 11 78 0.0 4.8 0.00 0.00 0.00 87 1012.3
20260505053603 11 82 0.0 6.4 0.00 0.00 0.00 87 1012.3
20260505052913 11 85 0.0 4.8 0.00 0.00 0.00 87 1012.3
20260505051805 11 86 0.0 3.2 0.00 0.00 0.00 87 1012.3
20260505050905 11 86 0.0 1.6 0.00 0.00 0.00 87 1012.4
20260505050216 11 86 0.0 3.2 0.00 0.00 0.00 87 1012.3
20260505040903 11 75 0.0 3.2 0.00 0.00 0.00 89 1012.4
20260505040216 11 75 1.6 4.8 0.00 0.00 0.00 88 1012.4
20260505035405 11 78 0.0 3.2 0.00 0.00 0.00 89 1012.4
20260505034505 11 78 0.0 6.4 0.00 0.00 0.00 88 1012.4
20260505033605 11 80 1.6 6.4 0.00 0.00 0.00 88 1012.5
20260505032703 11 88 1.6 6.4 0.00 0.00 0.00 88 1012.4
20260505031803 11 94 1.6 6.4 0.00 0.00 0.00 88 1012.4
20260505030903 11 99 0.0 4.8 0.00 0.00 0.00 89 1012.4
20260505030005 11 99 0.0 3.2 0.00 0.00 0.00 89 1012.5
20260505025404 11 99 0.0 3.2 0.00 0.00 0.00 89 1012.5
20260505024505 11 99 0.0 3.2 0.00 0.00 0.00 89 1012.5
20260505023605 11 99 0.0 3.2 0.00 0.00 0.00 89 1012.6
20260505022705 11 100 1.6 6.4 0.00 0.00 0.00 88 1012.5
20260505021805 11 95 1.6 6.4 0.00 0.00 0.00 88 1012.6
20260505020905 11 92 1.6 9.7 0.00 0.00 0.00 88 1012.6
20260505020006 11 85 1.6 9.7 0.00 0.00 0.00 88 1012.6
20260505015404 11 84 1.6 6.4 0.00 0.00 0.00 88 1012.5
20260505014503 11 85 3.2 11.3 0.00 0.00 0.00 88 1012.7
20260505013605 11 84 1.6 9.7 0.00 0.00 0.00 88 1012.9
20260505012704 11 95 1.6 9.7 0.00 0.00 0.00 87 1012.8
20260505011804 11 80 1.6 6.4 0.00 0.00 0.00 87 1013.0
20260505011116 11 91 3.2 9.7 0.00 0.00 0.00 87 1013.1
20260505010003 12 86 3.2 11.3 0.00 0.00 0.00 87 1013.2
20260505005403 12 91 3.2 9.7 0.00 0.00 0.00 87 1013.2
20260505004504 12 83 3.2 14.5 0.00 0.00 0.00 87 1013.2
20260505003603 12 91 3.2 9.7 0.00 0.00 0.00 87 1013.2
20260505002705 12 94 3.2 11.3 0.00 0.00 0.00 87 1013.2
20260505001805 12 92 1.6 4.8 0.00 0.00 0.00 87 1013.2
20260505000905 12 90 1.6 6.4 0.00 0.00 0.00 86 1013.3
20260505000003 12 84 3.2 9.7 0.00 0.00 0.00 86 1013.4
20260504235405 12 88 3.2 8.0 0.00 0.00 0.00 85 1013.3
20260504234503 13 69 1.6 6.4 0.00 0.00 0.00 84 1013.3
20260504233603 13 15 1.6 8.0 0.00 0.00 0.00 81 1013.2
20260504232703 13 32 1.6 8.0 0.00 0.00 0.00 81 1013.4
20260504232015 13 43 1.6 6.4 0.00 0.00 0.00 81 1013.4
20260504230904 13 46 1.6 12.9 0.00 0.00 0.00 81 1013.5
20260504230005 13 58 1.6 11.3 0.00 0.00 0.00 80 1013.4
20260504225403 13 35 1.6 14.5 0.00 0.00 0.00 80 1013.5
20260504224505 13 34 1.6 8.0 0.00 0.00 0.00 80 1013.5
20260504223816 13 16 1.6 8.0 0.00 0.00 0.00 80 1013.5
20260504222918 13 11 1.6 8.0 0.00 0.00 0.00 80 1013.6
20260504221804 13 11 1.6 8.0 0.00 0.00 0.00 81 1013.6
20260504221118 13 37 1.6 8.0 0.00 0.00 0.00 81 1013.6
20260504220215 13 30 1.6 9.7 0.00 0.00 0.00 81 1013.6
20260504215405 13 36 1.6 8.0 0.00 0.00 0.00 83 1013.6
20260504214505 13 73 0.0 3.2 0.00 0.00 0.00 84 1013.7
20260504213603 13 73 0.0 3.2 0.00 0.00 0.00 84 1013.7
20260504212705 13 73 0.0 3.2 0.00 0.00 0.00 84 1013.6
20260504211805 13 74 0.0 3.2 0.00 0.00 0.00 84 1013.6
20260504210905 13 73 1.6 6.4 0.00 0.00 0.00 83 1013.6
20260504210004 13 58 1.6 8.0 0.00 0.00 0.00 83 1013.6
20260504205405 13 70 1.6 8.0 0.00 0.00 0.00 82 1013.6
20260504204505 14 79 1.6 6.4 0.00 0.00 0.00 82 1013.6
20260504203605 14 78 1.6 4.8 0.00 0.00 0.00 81 1013.6
20260504202705 14 78 1.6 4.8 0.00 0.00 0.00 80 1013.7
20260504202017 14 78 0.0 4.8 0.00 0.00 0.00 80 1013.7
20260504201114 14 79 1.6 3.2 0.00 0.00 0.00 80 1013.6
20260504200005 14 76 1.6 6.4 0.00 0.00 0.00 80 1013.6
20260504195618 14 74 1.6 4.8 0.00 0.00 0.00 80 1013.6
20260504194505 14 76 1.6 4.8 0.00 0.00 0.00 80 1013.5
20260504193813 14 68 1.6 4.8 0.00 0.00 0.00 79 1013.4